Location: Unspecified
(0.0000°N, 0.0000°E)
Time: 17:57:51
(UTC+00:00)

COSMOS 2416 - Pass Details

Date: 19 May 2026
Orbit: 1436 x 1449 km, 82.5° (Epoch: 10 June)

Event Time Altitude Azimuth Distance (km) Brightness Sun altitude
Rises 19:09:40 0° 328° (NNW) 4,519 10.2 -17.2°
Reaches altitude 10° 19:13:19 10° 314° (NW) 3,542 9.7 -18.0°
Maximum altitude 19:19:24 22° 267° (W) 2,721 8.9 -19.4°
Drops below altitude 10° 19:25:31 10° 220° (SW) 3,545 8.9 -20.9°
Sets 19:29:14 0° 205° (SSW) 4,525 9.3 -21.7°
